GFSMA_700_temp_000.txt.gz
Temp
2 2 2 2 2 2 2 2 1 1 1 1 1 1 1 1 2 2 2 2 2 2 2 2 1 1 1 2 2 2 2 2 2 3 3 4 4 4 5 4 4 5 5
2 2 2 1 1 1 1 1 1 1 0 0 0 0 0 1 1 1 1 1 1 2 2 2 1 0 1 1 1 1 2 1 2 2 3 3 3 3 3 4 4 4 5
1 1 1 1 0 1 0 0 0 0 0 -0 -1 -1 -1 -1 -0 0 0 1 1 1 1 1 1 0 0 0 1 0 1 1 2 2 2 2 3 3 3 3 3 4 4
1 0 0 0 -0 -0 -1 -1 -1 -1 -1 -1 -1 -1 -1 -1 -1 -1 -1 -0 0 0 -0 -0 -0 -0 -1 -0 0 0 0 0 1 2 2 2 2 3 3 3 3 3 3
-0 -0 -0 -1 -1 -1 -1 -1 -1 -1 -2 -2 -2 -2 -2 -2 -2 -2 -2 -2 -2 -1 -1 -1 -1 -0 -0 -0 -0 -0 0 1 0 1 1 2 2 2 2 2 2 2 2
-1 -1 -1 -1 -2 -2 -2 -2 -2 -2 -2 -2 -3 -3 -3 -3 -3 -3 -3 -3 -3 -3 -2 -1 -1 -1 -1 -1 -1 -0 -1 -0 0 1 0 1 1 1 1 1 1 2 2
-1 -1 -1 -1 -2 -2 -3 -3 -3 -3 -3 -3 -3 -3 -3 -3 -3 -3 -3 -3 -3 -3 -3 -3 -2 -2 -2 -1 -1 -1 -1 -1 -0 -0 0 1 1 0 1 -0 0 1 1
-2 -2 -1 -1 -2 -2 -3 -3 -3 -3 -3 -3 -4 -4 -3 -3 -3 -3 -4 -4 -4 -3 -3 -3 -3 -3 -2 -2 -2 -1 -1 -1 -1 -1 -1 -0 -0 0 -0 1 1 1 1
-2 -2 -2 -2 -2 -3 -3 -4 -4 -5 -5 -5 -4 -4 -4 -3 -3 -3 -3 -4 -4 -3 -3 -3 -4 -4 -4 -3 -3 -3 -2 -2 -1 -1 -1 -1 -0 -0 -1 -0 -0 -0 0
-2 -2 -2 -2 -3 -4 -4 -4 -5 -5 -6 -6 -6 -6 -5 -5 -5 -5 -4 -4 -4 -4 -3 -4 -4 -4 -4 -5 -4 -4 -3 -2 -2 -2 -1 -1 -2 -1 -1 -1 -1 -0 -0
-2 -2 -2 -2 -3 -3 -4 -4 -6 -6 -6 -7 -7 -7 -7 -6 -6 -5 -5 -5 -5 -4 -4 -5 -4 -4 -5 -5 -5 -5 -4 -4 -3 -3 -3 -2 -1 -2 -1 -1 -1 -0 -0
-2 -2 -2 -2 -3 -3 -4 -4 -5 -6 -6 -7 -7 -7 -8 -8 -8 -7 -6 -6 -6 -5 -5 -5 -4 -5 -5 -6 -6 -6 -6 -5 -4 -4 -3 -3 -2 -2 -1 -1 -1 -1 -0
-2 -2 -3 -3 -4 -4 -5 -5 -6 -7 -7 -6 -7 -7 -8 -8 -8 -8 -8 -8 -8 -7 -6 -6 -5 -5 -6 -7 -7 -7 -6 -6 -6 -5 -6 -4 -3 -3 -3 -2 -2 -1 -1
-3 -4 -5 -5 -6 -7 -8 -8 -7 -7 -7 -7 -7 -8 -9 -9 -9 -9 -9 -9 -8 -8 -7 -7 -7 -7 -7 -7 -8 -8 -8 -7 -7 -7 -7 -6 -5 -4 -3 -3 -2 -2 -1
-5 -6 -8 -9 -9 -9 -9 -9 -8 -8 -8 -8 -10 -10 -9 -9 -9 -9 -10 -10 -10 -9 -8 -8 -8 -8 -8 -8 -9 -9 -9 -9 -9 -9 -9 -9 -7 -6 -4 -3 -2 -2 -2
-7 -8 -9 -9 -9 -10 -10 -9 -9 -9 -10 -10 -10 -10 -11 -11 -11 -11 -12 -12 -12 -11 -11 -10 -10 -9 -9 -9 -9 -10 -10 -10 -10 -9 -10 -10 -9 -8 -6 -4 -3 -2 -4
-9 -10 -10 -10 -10 -10 -10 -10 -10 -11 -11 -12 -12 -12 -12 -12 -11 -12 -12 -12 -12 -12 -12 -11 -12 -11 -10 -10 -10 -10 -11 -11 -11 -11 -10 -9 -10 -9 -8 -7 -6 -4 -3
-10 -10 -10 -10 -11 -11 -11 -11 -11 -12 -12 -12 -12 -12 -12 -12 -12 -13 -13 -13 -13 -13 -13 -13 -12 -12 -12 -12 -12 -12 -11 -11 -11 -11 -11 -11 -10 -10 -9 -9 -8 -7 -5
-10 -11 -11 -11 -12 -12 -12 -12 -12 -13 -13 -13 -13 -13 -13 -13 -13 -13 -13 -13 -13 -14 -14 -13 -13 -13 -13 -13 -13 -13 -12 -12 -12 -11 -11 -11 -11 -11 -10 -10 -9 -8 -7
-12 -12 -12 -12 -13 -12 -13 -14 -13 -13 -13 -13 -13 -14 -14 -13 -13 -14 -14 -14 -14 -14 -14 -14 -14 -14 -14 -13 -13 -13 -13 -13 -12 -12 -12 -12 -11 -11 -11 -11 -10 -9 -8
-13 -13 -12 -13 -13 -14 -14 -14 -14 -14 -14 -14 -14 -14 -14 -14 -14 -14 -14 -14 -14 -14 -14 -14 -14 -14 -14 -14 -14 -13 -13 -13 -12 -12 -12 -12 -12 -11 -11 -11 -11 -10 -9
-13 -14 -14 -14 -14 -15 -15 -14 -14 -14 -14 -14 -14 -14 -14 -14 -14 -14 -14 -14 -14 -14 -14 -14 -14 -14 -14 -14 -14 -14 -13 -13 -12 -12 -12 -12 -12 -12 -12 -11 -11 -11 -11
-14 -14 -15 -16 -15 -15 -15 -15 -15 -15 -15 -15 -15 -14 -14 -14 -14 -14 -14 -14 -15 -15 -15 -15 -14 -14 -14 -15 -15 -15 -15 -14 -13 -13 -13 -12 -12 -12 -12 -12 -12 -11 -11
-15 -15 -15 -15 -16 -16 -16 -16 -16 -15 -15 -15 -15 -15 -14 -14 -14 -15 -14 -14 -15 -15 -15 -15 -16 -15 -15 -15 -16 -16 -15 -15 -14 -14 -14 -12 -12 -12 -12 -12 -12 -12 -12
-15 -15 -16 -16 -16 -16 -16 -16 -16 -16 -16 -15 -15 -15 -15 -15 -15 -15 -15 -15 -15 -14 -15 -15 -15 -16 -16 -16 -16 -16 -16 -15 -15 -14 -15 -14 -13 -13 -12 -12 -12 -12 -12
-15 -16 -16 -16 -16 -16 -17 -17 -16 -16 -16 -15 -15 -15 -15 -15 -15 -16 -15 -15 -15 -15 -15 -15 -16 -16 -16 -16 -16 -16 -16 -16 -16 -15 -15 -14 -14 -14 -13 -12 -12 -13 -13

GFSMA_700_temp_003.txt.gz
Temp
3 2 2 2 2 2 2 2 2 2 2 1 1 1 1 1 1 1 1 1 1 1 1 1 2 2 2 3 2 2 2 3 3 3 3 3 3 3 3 2 4 4 4
2 2 2 2 1 1 1 1 1 1 1 1 1 1 1 1 1 0 0 0 0 0 1 1 1 1 2 2 2 2 2 2 2 3 2 2 3 3 3 2 2 4 4
1 1 0 0 0 0 0 0 0 0 0 -0 -0 -0 -0 -0 0 0 0 0 -0 -0 -0 0 0 0 0 1 1 1 1 1 1 2 3 2 2 2 2 2 2 2 3
0 0 -0 -1 -1 -1 -1 -1 -1 -1 -1 -1 -1 -1 -1 -1 -1 -1 -0 -0 -0 -0 -0 -1 -0 -0 -0 0 -0 1 1 0 0 1 1 2 2 2 2 2 2 2 2
-1 -1 -1 -1 -1 -1 -1 -1 -1 -1 -1 -1 -2 -2 -2 -2 -2 -2 -2 -1 -1 -1 -1 -0 -1 -1 -1 -0 -0 0 -0 0 0 -0 1 2 1 2 2 2 2 2 2
-1 -1 -1 -0 -1 -1 -1 -2 -2 -2 -2 -2 -2 -3 -3 -3 -3 -3 -3 -3 -3 -3 -3 -2 -2 -1 -1 -1 -1 -0 0 -0 -0 0 0 1 1 1 1 1 2 2 2
-2 -2 -2 -1 -1 -1 -1 -1 -2 -3 -3 -3 -3 -3 -3 -3 -3 -3 -3 -3 -3 -3 -3 -3 -3 -3 -2 -2 -1 -1 -1 -0 -0 0 1 1 1 0 0 1 1 1 2
-2 -2 -2 -2 -2 -2 -2 -2 -2 -2 -3 -4 -4 -4 -4 -3 -3 -3 -3 -4 -3 -4 -4 -4 -3 -4 -3 -3 -2 -2 -2 -2 -1 -0 -0 0 -0 0 0 1 1 1 1
-2 -2 -2 -2 -2 -3 -3 -3 -3 -3 -3 -4 -4 -5 -5 -5 -5 -4 -4 -4 -4 -4 -4 -4 -4 -3 -3 -4 -4 -3 -3 -2 -2 -2 -2 -0 -0 -0 0 0 1 0 1
-2 -2 -2 -2 -2 -2 -2 -2 -3 -3 -4 -4 -4 -5 -6 -6 -6 -6 -5 -5 -4 -4 -4 -4 -4 -4 -4 -4 -4 -4 -4 -4 -3 -2 -2 -2 -1 -0 -0 0 0 -1 -0
-2 -2 -2 -2 -2 -2 -2 -2 -3 -4 -4 -5 -5 -5 -6 -5 -6 -6 -5 -6 -5 -5 -5 -5 -5 -5 -5 -5 -5 -5 -5 -5 -4 -4 -3 -3 -3 -2 -1 -1 -0 -1 -1
-3 -3 -3 -3 -3 -3 -3 -3 -3 -4 -4 -5 -5 -5 -6 -6 -6 -7 -6 -6 -6 -6 -6 -6 -5 -5 -5 -5 -5 -5 -5 -6 -6 -5 -4 -3 -3 -3 -2 -2 -2 -1 -1
-4 -3 -3 -3 -3 -3 -4 -5 -6 -6 -7 -7 -7 -7 -6 -7 -7 -7 -7 -8 -7 -7 -8 -7 -7 -7 -6 -6 -6 -6 -6 -6 -7 -6 -6 -5 -4 -4 -4 -3 -3 -3 -2
-4 -4 -5 -5 -6 -7 -9 -9 -9 -9 -9 -9 -8 -8 -8 -8 -8 -9 -9 -9 -9 -9 -9 -8 -8 -8 -7 -6 -6 -7 -7 -6 -7 -8 -7 -7 -6 -5 -4 -4 -3 -4 -3
-5 -5 -6 -7 -9 -9 -10 -10 -10 -10 -11 -10 -10 -10 -9 -10 -10 -10 -10 -9 -10 -10 -9 -9 -8 -8 -7 -7 -7 -7 -8 -8 -8 -9 -9 -8 -8 -7 -5 -4 -3 -4 -4
-6 -8 -9 -10 -10 -10 -10 -10 -10 -10 -11 -11 -11 -11 -11 -11 -11 -10 -10 -10 -11 -11 -11 -10 -11 -9 -9 -9 -9 -8 -9 -10 -10 -10 -9 -9 -9 -9 -7 -6 -5 -3 -4
-9 -10 -10 -11 -11 -11 -11 -11 -11 -11 -11 -11 -12 -12 -12 -13 -13 -13 -12 -12 -12 -12 -12 -11 -12 -12 -11 -11 -11 -10 -9 -9 -10 -11 -11 -10 -10 -10 -9 -8 -7 -6 -4
-10 -11 -11 -12 -11 -11 -11 -12 -12 -12 -12 -12 -13 -14 -14 -14 -13 -13 -13 -13 -13 -13 -13 -13 -13 -13 -12 -12 -12 -12 -11 -10 -11 -11 -11 -11 -11 -10 -10 -10 -9 -8 -7
-11 -11 -12 -12 -12 -12 -12 -13 -13 -13 -14 -14 -14 -14 -14 -14 -14 -14 -14 -13 -13 -14 -14 -14 -13 -13 -13 -13 -13 -13 -13 -12 -12 -12 -11 -12 -11 -11 -10 -10 -10 -9 -9
-12 -12 -12 -12 -12 -12 -12 -13 -13 -14 -14 -14 -14 -14 -14 -14 -14 -14 -14 -14 -14 -14 -14 -14 -14 -14 -14 -14 -13 -13 -13 -13 -13 -12 -12 -12 -12 -11 -11 -11 -10 -10 -10
-13 -13 -13 -13 -13 -14 -14 -14 -15 -15 -15 -15 -15 -15 -15 -15 -15 -15 -14 -14 -14 -14 -14 -14 -14 -14 -14 -14 -14 -14 -14 -13 -13 -13 -12 -12 -12 -12 -11 -11 -11 -10 -10
-13 -14 -14 -14 -15 -15 -15 -15 -15 -15 -15 -15 -15 -15 -15 -15 -15 -15 -15 -15 -15 -14 -14 -14 -14 -14 -14 -14 -14 -14 -14 -14 -13 -13 -13 -12 -13 -12 -12 -12 -11 -11 -11
-15 -15 -15 -15 -15 -16 -16 -16 -16 -16 -16 -16 -15 -15 -15 -15 -15 -15 -15 -14 -15 -15 -15 -15 -14 -14 -14 -14 -15 -15 -15 -15 -14 -14 -14 -13 -13 -13 -12 -12 -12 -12 -11
-15 -15 -15 -16 -16 -16 -16 -17 -16 -16 -16 -16 -16 -16 -16 -16 -15 -15 -15 -15 -15 -15 -15 -15 -15 -15 -15 -15 -15 -15 -15 -15 -15 -15 -15 -13 -14 -13 -13 -12 -12 -12 -12
-16 -16 -16 -16 -17 -17 -17 -17 -17 -16 -16 -16 -16 -16 -16 -16 -16 -16 -16 -15 -15 -15 -15 -15 -15 -15 -15 -16 -15 -15 -15 -16 -15 -16 -15 -15 -14 -14 -13 -13 -12 -12 -12
-16 -16 -17 -17 -17 -17 -17 -17 -17 -17 -16 -16 -16 -16 -16 -16 -16 -16 -16 -16 -16 -15 -15 -16 -16 -16 -16 -16 -16 -16 -16 -16 -16 -16 -15 -16 -15 -14 -14 -13 -13 -13 -12

GFSMA_700_temp_006.txt.gz
Temp
2 2 2 2 1 1 1 1 1 1 1 1 1 1 1 1 1 1 1 1 1 1 1 1 1 2 2 1 1 2 2 2 2 2 3 3 3 3 3 3 3 4 4
1 1 1 1 1 1 0 0 -0 -0 -0 0 0 0 0 0 1 0 0 0 1 1 0 1 1 1 1 1 1 1 2 2 2 2 2 2 3 3 3 3 3 3 3
0 0 0 0 0 0 0 0 0 0 0 -0 -0 -0 -0 -0 -0 -0 -0 -0 0 0 0 0 0 0 1 1 1 1 1 1 1 2 2 2 3 2 3 2 3 3 3
-0 -1 -0 -0 -1 -0 -0 -0 -0 -0 -0 -0 -0 -1 -0 -1 -1 -1 -1 -1 -1 -1 -0 -0 -0 -0 -0 0 1 1 -1 0 1 1 2 1 2 2 2 2 2 2 2
-1 -1 -1 -0 -1 -1 -1 -0 -0 -1 -0 -1 -1 -1 -1 -1 -2 -2 -2 -2 -2 -2 -2 -1 -1 -1 -1 -1 -0 0 0 0 -0 0 1 1 1 1 2 2 1 2 2
-2 -2 -1 -1 -0 -1 -1 -1 -1 -1 -2 -1 -2 -2 -2 -2 -2 -2 -3 -3 -3 -2 -3 -3 -2 -2 -2 -2 -2 -1 -1 -0 0 0 -1 0 1 0 0 1 1 1 2
-2 -2 -2 -2 -2 -2 -2 -2 -2 -2 -2 -2 -2 -2 -2 -2 -2 -3 -3 -3 -3 -3 -3 -3 -4 -4 -3 -2 -2 -2 -2 -1 -1 0 0 -1 -0 -0 0 0 1 2 1
-2 -2 -2 -2 -2 -2 -2 -2 -2 -2 -2 -2 -2 -3 -3 -4 -4 -2 -3 -3 -3 -3 -4 -4 -4 -4 -4 -4 -4 -3 -2 -2 -1 -1 -0 0 -0 -1 -0 -1 -0 0 1
-2 -2 -2 -2 -2 -2 -2 -2 -2 -2 -2 -2 -3 -3 -3 -4 -4 -4 -5 -4 -4 -3 -4 -4 -4 -4 -4 -4 -4 -4 -4 -3 -2 -2 -2 -1 -0 -0 0 0 1 -0 -1
-2 -3 -3 -3 -3 -2 -2 -2 -2 -2 -2 -2 -4 -4 -4 -4 -4 -5 -5 -5 -5 -5 -4 -4 -4 -4 -4 -4 -4 -4 -4 -4 -3 -3 -2 -2 -1 -1 -1 -0 0 1 1
-3 -4 -3 -3 -3 -3 -3 -2 -2 -3 -3 -3 -4 -4 -4 -6 -5 -5 -5 -5 -6 -6 -5 -4 -4 -4 -5 -5 -5 -5 -5 -5 -4 -4 -4 -3 -3 -2 -2 -1 -1 -1 -0
-4 -4 -3 -3 -3 -3 -3 -4 -4 -4 -4 -5 -6 -6 -6 -6 -7 -7 -7 -6 -6 -6 -8 -5 -5 -5 -5 -6 -6 -5 -6 -5 -5 -4 -4 -4 -4 -3 -3 -2 -2 -2 -1
-4 -4 -4 -4 -4 -5 -5 -5 -6 -7 -7 -8 -8 -8 -8 -8 -7 -8 -7 -7 -7 -7 -7 -7 -7 -6 -6 -7 -7 -6 -6 -6 -6 -5 -5 -4 -5 -5 -4 -3 -3 -2 -2
-5 -5 -5 -5 -6 -7 -8 -9 -10 -10 -10 -9 -9 -8 -9 -10 -9 -8 -9 -9 -9 -9 -9 -8 -8 -8 -8 -7 -7 -6 -7 -7 -7 -6 -6 -5 -5 -5 -5 -5 -4 -3 -3
-5 -5 -6 -7 -8 -9 -10 -10 -11 -10 -11 -10 -10 -10 -10 -10 -10 -10 -10 -10 -10 -10 -10 -10 -10 -10 -9 -8 -8 -7 -7 -7 -6 -7 -8 -7 -6 -6 -6 -6 -5 -4 -4
-6 -8 -9 -10 -10 -11 -11 -11 -11 -11 -11 -11 -11 -11 -11 -11 -11 -11 -11 -10 -11 -11 -11 -11 -11 -11 -10 -9 -8 -8 -8 -8 -8 -8 -8 -9 -9 -8 -8 -7 -6 -6 -5
-9 -10 -10 -11 -11 -11 -11 -12 -12 -12 -12 -12 -12 -12 -12 -12 -12 -12 -13 -13 -13 -13 -13 -11 -12 -12 -11 -10 -9 -9 -9 -9 -9 -8 -9 -9 -10 -10 -9 -9 -8 -7 -6
-11 -11 -12 -12 -12 -12 -12 -12 -12 -12 -13 -13 -13 -13 -13 -13 -13 -13 -13 -13 -13 -13 -13 -13 -14 -14 -12 -12 -11 -10 -10 -10 -10 -11 -10 -9 -10 -10 -10 -9 -9 -9 -8
-12 -12 -13 -13 -13 -13 -13 -13 -13 -14 -14 -14 -14 -14 -14 -14 -14 -14 -14 -13 -14 -14 -14 -14 -13 -13 -13 -13 -12 -12 -12 -12 -11 -11 -11 -11 -11 -11 -11 -10 -9 -9 -10
-13 -13 -13 -13 -13 -13 -14 -14 -15 -15 -15 -15 -15 -15 -15 -14 -14 -14 -14 -14 -14 -14 -14 -14 -14 -14 -14 -14 -13 -13 -13 -13 -12 -12 -12 -12 -12 -12 -11 -11 -10 -10 -9
-14 -14 -14 -14 -14 -15 -15 -15 -15 -16 -15 -15 -15 -15 -15 -15 -15 -15 -15 -14 -14 -14 -14 -15 -16 -15 -14 -15 -15 -15 -14 -14 -13 -15 -14 -13 -12 -12 -12 -12 -11 -11 -10
-14 -15 -15 -15 -15 -15 -15 -16 -16 -16 -16 -16 -16 -16 -16 -15 -15 -15 -15 -15 -15 -15 -15 -15 -14 -14 -14 -14 -14 -14 -14 -14 -13 -14 -13 -12 -13 -12 -12 -12 -12 -11 -11
-15 -15 -15 -15 -16 -16 -16 -16 -16 -17 -17 -16 -16 -16 -16 -16 -16 -16 -16 -15 -15 -15 -15 -15 -15 -14 -14 -14 -15 -15 -15 -14 -14 -15 -15 -13 -13 -12 -12 -12 -12 -12 -11
-15 -16 -16 -16 -16 -17 -17 -17 -17 -17 -17 -17 -17 -17 -17 -16 -16 -16 -16 -16 -15 -15 -15 -15 -15 -15 -15 -15 -15 -15 -15 -15 -15 -15 -15 -14 -14 -13 -13 -13 -12 -12 -12
-16 -16 -16 -16 -17 -17 -17 -17 -17 -17 -17 -17 -17 -17 -17 -17 -17 -17 -16 -16 -16 -16 -16 -16 -16 -16 -15 -16 -16 -16 -15 -15 -15 -15 -15 -15 -15 -14 -14 -13 -13 -12 -12
-16 -16 -17 -17 -17 -18 -18 -18 -18 -18 -18 -17 -17 -17 -17 -17 -17 -17 -17 -17 -16 -16 -16 -16 -16 -16 -16 -16 -16 -16 -16 -16 -16 -16 -16 -16 -16 -16 -15 -14 -14 -13 -13

GFSMA_700_temp_009.txt.gz
Temp
2 2 2 1 1 1 1 1 1 1 1 1 1 1 1 1 1 1 0 1 1 1 1 1 1 1 1 2 2 2 1 1 2 1 1 2 2 2 3 3 3 3 3
1 1 1 0 1 1 1 1 1 1 1 1 1 1 1 1 1 1 0 0 1 1 1 1 1 1 1 1 1 2 2 2 2 1 1 1 1 2 2 3 3 3 3
0 0 -0 -0 -0 0 0 0 0 0 0 0 0 1 1 1 0 0 0 -0 1 1 1 1 1 0 0 1 1 1 1 2 2 2 2 2 1 2 3 3 2 2 3
0 0 0 0 -0 -0 -0 -0 0 0 -0 -0 -0 -0 -1 -1 -1 -0 -0 -0 -1 -1 0 0 1 0 0 -0 0 1 1 1 1 2 1 1 1 1 1 2 3 2 2
-0 -1 -1 -0 -0 -1 -1 -1 -1 -1 -1 -1 -1 -1 -1 -1 -1 -1 -1 -1 -0 -1 -2 -1 -0 -1 -0 -0 -0 -0 0 0 1 1 1 2 1 1 1 2 1 2 2
-1 -1 -1 -1 -1 -1 -1 -1 -1 -1 -1 -1 -1 -1 -2 -2 -2 -2 -2 -2 -2 -2 -2 -2 -2 -1 -2 -1 -1 -1 -1 -0 0 0 1 1 1 1 1 1 1 2 2
-1 -2 -2 -2 -2 -2 -2 -2 -2 -2 -2 -2 -2 -1 -1 -1 -1 -2 -2 -2 -3 -3 -2 -2 -3 -3 -2 -2 -2 -2 -2 -2 -1 -0 0 0 1 1 1 1 0 1 1
-2 -2 -2 -2 -2 -2 -2 -2 -2 -2 -2 -2 -2 -2 -2 -2 -2 -3 -3 -3 -3 -3 -4 -3 -3 -3 -3 -3 -3 -3 -3 -2 -2 -2 -1 -0 0 0 0 1 0 0 -0
-2 -2 -2 -2 -2 -3 -3 -3 -3 -3 -2 -2 -2 -3 -4 -3 -4 -4 -4 -4 -4 -4 -4 -4 -4 -3 -3 -3 -4 -4 -4 -3 -3 -2 -2 -2 -1 -0 -0 -0 0 0 -0
-2 -2 -2 -2 -3 -3 -3 -3 -3 -3 -3 -3 -3 -4 -4 -5 -4 -4 -4 -4 -4 -4 -5 -5 -6 -5 -3 -3 -3 -4 -4 -4 -4 -3 -3 -2 -2 -1 -1 -1 -1 -0 -1
-3 -4 -4 -4 -4 -4 -4 -4 -4 -3 -4 -4 -4 -4 -5 -5 -7 -6 -5 -4 -5 -4 -5 -5 -5 -6 -6 -5 -4 -4 -4 -5 -5 -4 -4 -3 -3 -2 -1 -1 -1 -1 -1
-4 -5 -5 -5 -5 -5 -4 -4 -4 -5 -5 -5 -6 -6 -6 -7 -7 -8 -8 -7 -6 -6 -5 -6 -6 -7 -7 -6 -5 -5 -4 -4 -5 -5 -4 -4 -4 -3 -3 -2 -2 -2 -1
-5 -5 -5 -5 -5 -5 -5 -6 -7 -7 -8 -9 -9 -9 -9 -9 -9 -9 -9 -9 -8 -7 -6 -7 -7 -8 -8 -8 -7 -7 -4 -5 -5 -5 -5 -5 -4 -4 -4 -3 -3 -2 -2
-5 -5 -5 -5 -6 -6 -7 -9 -9 -9 -10 -11 -11 -11 -11 -10 -10 -10 -10 -10 -9 -8 -7 -7 -7 -8 -8 -9 -9 -7 -6 -5 -6 -6 -5 -5 -4 -5 -4 -4 -4 -3 -3
-6 -6 -6 -7 -8 -9 -9 -10 -11 -11 -11 -11 -11 -11 -11 -11 -11 -11 -11 -10 -10 -10 -10 -9 -9 -9 -9 -10 -10 -9 -8 -8 -7 -6 -6 -6 -6 -5 -5 -5 -4 -4 -4
-7 -8 -9 -10 -10 -11 -11 -12 -12 -12 -12 -12 -12 -12 -12 -12 -12 -12 -12 -12 -12 -11 -10 -10 -10 -10 -10 -10 -11 -11 -9 -9 -8 -7 -7 -8 -7 -7 -6 -6 -5 -5 -4
-9 -10 -10 -11 -12 -12 -12 -12 -12 -12 -12 -13 -13 -13 -13 -14 -14 -14 -14 -14 -14 -14 -14 -13 -13 -12 -11 -11 -11 -12 -11 -10 -9 -8 -8 -8 -8 -8 -7 -7 -7 -6 -5
-11 -12 -12 -12 -13 -13 -13 -13 -13 -13 -13 -14 -14 -15 -14 -15 -15 -14 -15 -15 -15 -15 -15 -15 -15 -14 -14 -14 -14 -13 -14 -14 -13 -13 -11 -9 -8 -9 -9 -9 -9 -8 -7
-11 -12 -12 -13 -14 -14 -14 -14 -15 -15 -15 -16 -16 -16 -15 -15 -15 -15 -15 -14 -15 -16 -16 -16 -16 -15 -15 -14 -14 -14 -14 -14 -14 -14 -13 -12 -10 -9 -9 -10 -10 -10 -9
-13 -13 -14 -14 -14 -14 -15 -15 -15 -15 -15 -16 -17 -17 -17 -17 -16 -15 -15 -15 -15 -15 -15 -14 -14 -15 -15 -15 -15 -15 -15 -15 -14 -15 -15 -14 -13 -12 -10 -9 -9 -9 -9
-14 -14 -15 -15 -16 -16 -17 -15 -16 -16 -16 -16 -16 -17 -18 -18 -17 -16 -16 -15 -15 -15 -15 -15 -15 -15 -16 -16 -16 -16 -15 -15 -15 -15 -15 -14 -14 -14 -12 -11 -10 -10 -10
-15 -15 -15 -16 -17 -17 -17 -15 -16 -16 -16 -16 -16 -17 -17 -18 -18 -17 -16 -16 -16 -16 -16 -15 -15 -15 -15 -15 -15 -15 -15 -15 -14 -15 -14 -14 -14 -13 -13 -12 -12 -12 -11
-16 -17 -17 -18 -18 -17 -17 -16 -16 -17 -17 -17 -17 -17 -17 -18 -18 -17 -17 -16 -16 -16 -16 -16 -15 -15 -15 -15 -15 -14 -15 -15 -15 -15 -15 -14 -15 -14 -13 -12 -12 -12 -11
-17 -18 -18 -17 -16 -17 -17 -17 -17 -17 -17 -17 -18 -18 -17 -17 -17 -17 -16 -17 -16 -16 -16 -16 -16 -15 -15 -15 -15 -15 -15 -15 -15 -15 -15 -14 -14 -14 -14 -14 -12 -12 -12
-17 -18 -16 -16 -17 -17 -17 -17 -17 -18 -18 -18 -18 -18 -18 -18 -17 -17 -17 -17 -17 -16 -17 -17 -16 -16 -16 -16 -16 -15 -15 -15 -15 -15 -15 -15 -14 -14 -15 -14 -14 -13 -13
-17 -16 -16 -17 -17 -17 -18 -18 -18 -18 -18 -18 -18 -18 -18 -18 -18 -18 -18 -18 -17 -17 -17 -17 -16 -16 -16 -16 -16 -16 -16 -16 -16 -15 -15 -16 -17 -17 -16 -16 -15 -14 -13

GFSMA_700_temp_012.txt.gz
Temp
2 2 2 2 2 2 1 1 1 1 1 1 1 1 1 1 1 1 0 1 1 1 1 1 1 1 1 2 2 2 2 2 1 1 1 1 -0 1 1 2 3 2 2
2 2 1 1 1 1 1 1 1 1 2 2 2 1 2 2 1 1 1 0 0 1 1 1 1 1 1 1 1 2 2 2 2 1 1 1 1 1 1 1 2 3 3
1 1 1 1 1 1 1 1 1 1 1 1 1 1 1 1 2 2 1 0 0 0 0 0 1 0 1 1 1 1 1 2 2 2 1 1 1 1 1 2 2 2 3
1 0 0 0 -0 0 0 0 0 0 0 0 0 0 -0 0 0 1 1 2 1 -0 -0 0 0 -0 0 0 0 0 0 1 2 2 2 1 1 1 1 1 1 2 2
0 -0 -1 -1 -1 -1 -1 -1 -1 -0 -0 -0 -0 -1 -1 -1 -1 -1 -1 -0 1 -0 -2 -1 -1 -1 -1 -1 -1 -0 0 0 1 1 2 2 2 1 1 0 1 1 1
-0 -0 -1 -1 -2 -2 -2 -2 -2 -1 -1 -1 -1 -1 -1 -1 -1 -2 -2 -1 -1 -1 -1 -2 -3 -2 -2 -2 -1 -1 -1 -0 -0 0 1 1 2 1 1 1 -0 0 1
-0 -1 -1 -1 -2 -1 -2 -2 -2 -2 -2 -2 -2 -2 -2 -2 -1 -1 -1 -2 -2 -3 -3 -2 -1 -3 -2 -2 -3 -2 -1 -2 -1 -1 -0 -0 1 1 1 0 1 1 1
-2 -2 -2 -2 -2 -2 -2 -2 -3 -3 -3 -3 -3 -3 -3 -2 -2 -2 -3 -3 -4 -4 -3 -4 -4 -3 -3 -3 -3 -3 -3 -2 -2 -2 -1 -1 -1 -0 -0 0 0 1 0
-3 -2 -2 -3 -2 -3 -3 -3 -3 -4 -3 -3 -4 -4 -3 -3 -3 -3 -2 -3 -4 -4 -3 -4 -4 -5 -4 -3 -4 -3 -4 -3 -3 -3 -2 -2 -1 -1 -1 -1 0 0 1
-2 -3 -4 -4 -4 -4 -5 -5 -5 -5 -5 -4 -4 -4 -4 -5 -4 -4 -3 -3 -4 -5 -5 -4 -4 -4 -5 -5 -4 -5 -4 -4 -4 -4 -3 -3 -3 -2 -1 -1 -1 -0 0
-3 -4 -4 -4 -4 -5 -5 -5 -5 -5 -5 -5 -5 -5 -5 -7 -7 -7 -5 -5 -5 -5 -5 -5 -4 -5 -5 -5 -5 -6 -6 -5 -5 -5 -4 -4 -3 -3 -2 -2 -2 -2 -1
-4 -4 -5 -5 -5 -5 -5 -5 -5 -5 -6 -6 -7 -7 -8 -8 -8 -8 -9 -8 -8 -7 -7 -6 -6 -5 -5 -5 -6 -7 -7 -6 -5 -5 -5 -5 -5 -4 -3 -2 -2 -2 -2
-4 -5 -5 -5 -6 -6 -6 -6 -7 -8 -9 -9 -10 -10 -10 -11 -11 -10 -10 -10 -9 -9 -9 -9 -7 -6 -7 -6 -7 -7 -8 -8 -6 -6 -6 -5 -5 -5 -4 -4 -3 -2 -2
-5 -6 -7 -7 -7 -7 -7 -8 -9 -10 -11 -11 -11 -11 -11 -11 -11 -11 -11 -11 -10 -10 -9 -9 -9 -8 -8 -7 -7 -7 -8 -8 -7 -6 -6 -5 -5 -5 -5 -4 -4 -3 -3
-7 -7 -7 -8 -8 -9 -10 -10 -11 -12 -12 -12 -12 -12 -12 -12 -12 -12 -12 -12 -12 -11 -10 -11 -10 -9 -9 -8 -8 -8 -9 -9 -9 -8 -6 -6 -6 -6 -5 -5 -5 -4 -4
-7 -8 -8 -9 -10 -11 -12 -12 -12 -12 -13 -13 -13 -13 -13 -13 -13 -13 -13 -13 -13 -13 -11 -12 -11 -12 -12 -11 -10 -9 -9 -10 -10 -9 -8 -8 -7 -7 -6 -5 -5 -5 -5
-9 -9 -10 -11 -12 -12 -12 -13 -13 -13 -13 -13 -14 -14 -13 -13 -14 -14 -14 -14 -14 -14 -13 -12 -13 -13 -13 -13 -13 -10 -10 -10 -10 -9 -9 -9 -9 -8 -7 -7 -6 -6 -6
-9 -10 -11 -12 -13 -13 -14 -14 -14 -14 -14 -14 -14 -15 -15 -16 -15 -15 -15 -15 -15 -15 -15 -14 -14 -13 -14 -14 -14 -14 -13 -12 -12 -12 -11 -10 -9 -9 -8 -8 -7 -7 -6
-11 -12 -13 -14 -14 -14 -14 -14 -15 -15 -14 -15 -16 -16 -16 -16 -16 -16 -16 -16 -16 -16 -16 -15 -14 -14 -13 -14 -14 -14 -14 -14 -14 -14 -13 -13 -13 -11 -9 -9 -9 -8 -7
-13 -14 -14 -15 -15 -15 -16 -16 -15 -15 -15 -16 -16 -16 -16 -17 -17 -17 -17 -17 -17 -17 -16 -16 -15 -15 -15 -14 -14 -14 -14 -14 -14 -14 -14 -14 -14 -13 -13 -11 -9 -9 -9
-14 -15 -16 -16 -16 -16 -17 -16 -15 -16 -16 -16 -16 -16 -16 -17 -17 -17 -18 -18 -18 -17 -16 -16 -16 -15 -15 -15 -15 -16 -16 -16 -15 -15 -15 -14 -14 -14 -13 -13 -13 -11 -10
-15 -16 -16 -17 -17 -17 -17 -16 -16 -17 -17 -17 -17 -17 -17 -17 -17 -18 -18 -18 -18 -17 -16 -16 -16 -16 -15 -15 -15 -15 -15 -15 -15 -15 -14 -14 -14 -14 -14 -14 -13 -13 -12
-16 -16 -17 -17 -17 -17 -17 -17 -17 -17 -17 -18 -18 -18 -18 -18 -18 -18 -19 -18 -18 -17 -16 -16 -16 -16 -16 -16 -16 -16 -16 -16 -16 -16 -16 -15 -15 -14 -14 -14 -14 -15 -14
-16 -17 -17 -17 -17 -17 -17 -18 -17 -17 -18 -18 -18 -18 -18 -18 -18 -18 -18 -18 -18 -18 -17 -17 -17 -16 -16 -16 -16 -16 -16 -16 -16 -15 -15 -15 -15 -14 -14 -14 -14 -14 -14
-17 -17 -17 -17 -17 -17 -17 -17 -17 -18 -18 -18 -18 -19 -18 -18 -19 -19 -18 -18 -18 -18 -18 -18 -17 -17 -16 -16 -16 -16 -16 -16 -15 -15 -15 -16 -15 -15 -15 -14 -14 -14 -14
-17 -17 -17 -17 -17 -17 -17 -18 -18 -18 -19 -19 -19 -19 -19 -20 -19 -19 -19 -19 -19 -18 -18 -18 -18 -17 -17 -16 -16 -16 -16 -16 -16 -16 -16 -17 -17 -17 -16 -15 -15 -15 -14

GFSMA_700_temp_015.txt.gz
Temp
3 2 2 2 2 1 1 1 1 1 1 2 2 2 2 2 2 1 1 0 0 0 0 0 0 1 1 1 1 1 2 2 2 3 2 1 1 1 0 1 2 1 1
2 2 1 1 1 1 1 1 1 1 1 1 2 2 2 2 2 2 2 1 1 0 0 -0 -0 -0 0 0 0 1 1 1 2 2 2 1 1 0 0 1 1 1 2
2 1 1 0 0 0 0 0 0 0 1 1 1 1 1 1 2 1 1 1 1 1 1 0 0 -0 -1 -1 -0 -0 0 1 1 1 2 1 1 1 1 1 1 0 1
1 1 0 -0 -0 -0 -0 -1 -1 -0 0 0 0 0 0 0 0 0 1 0 -1 -0 0 0 0 0 -0 -1 -1 -1 -1 0 0 1 1 1 1 1 1 1 0 1 2
0 -0 -1 -0 -0 -1 -1 -1 -1 -1 -1 -1 -1 -1 -0 -0 -1 -1 -1 -1 -1 -1 -1 -1 -0 -1 -1 -0 -0 -1 -1 -1 -0 0 1 1 1 1 1 1 0 0 0
-0 -0 -2 -2 -1 -1 -1 -1 -1 -2 -2 -2 -2 -1 -1 -1 -1 -1 -1 -2 -2 -2 -2 -2 -2 -1 -1 -2 -3 -2 -1 -2 -2 -1 -0 0 0 0 0 1 1 0 0
-1 -1 -1 -1 -2 -2 -2 -2 -2 -2 -2 -2 -2 -2 -2 -2 -2 -2 -2 -2 -2 -2 -3 -4 -3 -4 -2 -2 -4 -4 -3 -1 -2 -2 -1 -1 -0 -0 -0 0 0 0 1
-2 -2 -2 -2 -2 -2 -2 -3 -3 -3 -3 -3 -4 -3 -3 -2 -3 -2 -3 -3 -3 -3 -3 -3 -4 -3 -4 -4 -4 -3 -4 -4 -2 -2 -3 -2 -1 -1 -1 -1 -0 0 0
-2 -2 -2 -2 -3 -3 -4 -4 -4 -4 -4 -4 -5 -5 -5 -4 -4 -3 -3 -3 -3 -3 -3 -4 -5 -4 -4 -4 -4 -4 -4 -4 -5 -3 -3 -3 -3 -2 -2 -1 -1 -0 -0
-2 -2 -2 -3 -3 -4 -4 -4 -5 -5 -5 -5 -5 -6 -6 -6 -6 -5 -4 -4 -4 -4 -4 -4 -5 -5 -5 -5 -5 -5 -5 -5 -5 -5 -3 -3 -3 -3 -2 -2 -2 -1 -1
-4 -4 -4 -4 -5 -5 -5 -5 -5 -6 -6 -6 -7 -8 -8 -8 -8 -8 -7 -6 -6 -6 -5 -5 -5 -6 -6 -6 -6 -5 -5 -5 -5 -6 -5 -4 -4 -4 -3 -3 -3 -2 -2
-4 -4 -5 -5 -5 -5 -6 -6 -6 -7 -7 -8 -8 -10 -10 -10 -10 -11 -10 -8 -8 -8 -8 -8 -8 -7 -7 -7 -7 -6 -5 -5 -6 -6 -6 -6 -5 -4 -4 -4 -3 -3 -2
-5 -5 -6 -6 -6 -7 -7 -8 -8 -9 -9 -10 -11 -11 -12 -12 -12 -12 -12 -11 -11 -10 -10 -10 -9 -9 -9 -8 -8 -7 -6 -6 -6 -6 -6 -6 -6 -6 -5 -5 -4 -3 -3
-6 -6 -7 -7 -7 -8 -8 -9 -10 -11 -11 -12 -12 -12 -12 -12 -12 -12 -12 -12 -11 -11 -11 -10 -11 -11 -10 -10 -10 -9 -8 -8 -7 -7 -7 -7 -7 -6 -5 -5 -5 -4 -4
-7 -7 -8 -8 -9 -9 -10 -11 -11 -12 -12 -12 -13 -13 -13 -13 -13 -13 -13 -13 -13 -12 -11 -11 -11 -12 -12 -11 -11 -10 -9 -9 -8 -8 -7 -8 -7 -7 -6 -6 -5 -5 -5
-8 -8 -9 -9 -10 -11 -11 -12 -13 -13 -13 -13 -14 -13 -13 -14 -13 -13 -13 -13 -13 -13 -12 -12 -12 -12 -13 -12 -12 -11 -9 -10 -9 -9 -8 -8 -8 -8 -7 -7 -7 -6 -5
-9 -9 -9 -10 -10 -12 -13 -13 -14 -14 -14 -14 -14 -14 -15 -15 -14 -15 -14 -14 -14 -14 -14 -13 -13 -12 -13 -14 -14 -13 -12 -11 -10 -9 -9 -9 -9 -9 -8 -7 -8 -7 -7
-10 -10 -10 -11 -12 -13 -14 -14 -14 -15 -15 -15 -15 -16 -16 -16 -16 -16 -16 -15 -15 -15 -15 -14 -14 -14 -14 -14 -14 -15 -14 -13 -13 -12 -11 -11 -10 -9 -9 -9 -8 -8 -8
-12 -11 -12 -13 -13 -14 -15 -15 -15 -15 -15 -16 -16 -16 -16 -17 -16 -17 -17 -16 -16 -16 -16 -16 -15 -15 -15 -15 -15 -15 -15 -14 -14 -14 -13 -12 -11 -10 -9 -9 -9 -9 -8
-13 -12 -13 -14 -14 -14 -15 -16 -16 -16 -16 -17 -17 -17 -17 -17 -17 -17 -17 -17 -17 -17 -17 -17 -17 -17 -16 -15 -15 -15 -15 -15 -14 -14 -14 -14 -13 -12 -10 -10 -10 -10 -10
-13 -12 -14 -15 -14 -14 -16 -17 -17 -17 -17 -17 -17 -17 -17 -17 -17 -18 -18 -18 -18 -17 -17 -17 -17 -16 -16 -16 -15 -15 -15 -15 -15 -14 -13 -13 -14 -13 -13 -12 -12 -10 -10
-14 -13 -15 -15 -14 -16 -17 -17 -17 -17 -17 -17 -18 -18 -18 -18 -18 -18 -18 -18 -18 -18 -18 -18 -17 -17 -16 -16 -16 -16 -15 -16 -15 -16 -15 -15 -15 -14 -14 -14 -14 -13 -12
-14 -14 -15 -15 -15 -17 -17 -17 -17 -17 -18 -18 -18 -18 -18 -18 -18 -18 -18 -18 -18 -19 -19 -18 -18 -17 -17 -17 -16 -16 -16 -15 -15 -16 -16 -16 -16 -15 -15 -15 -15 -14 -14
-14 -15 -15 -15 -17 -17 -17 -17 -17 -17 -18 -18 -19 -19 -19 -19 -19 -19 -19 -18 -18 -19 -19 -19 -19 -17 -17 -17 -17 -16 -16 -16 -16 -15 -15 -14 -14 -14 -15 -14 -15 -15 -15
-14 -15 -15 -16 -17 -17 -17 -17 -17 -17 -18 -19 -19 -19 -20 -20 -20 -20 -20 -19 -19 -19 -19 -19 -18 -17 -17 -17 -17 -17 -17 -17 -16 -16 -16 -15 -15 -15 -15 -15 -15 -15 -14
-15 -15 -16 -16 -16 -16 -17 -17 -17 -18 -18 -18 -19 -19 -19 -20 -20 -20 -20 -20 -19 -19 -19 -19 -19 -18 -18 -18 -17 -17 -17 -16 -16 -16 -16 -16 -15 -15 -15 -15 -15 -15 -14